This demonstration page uses our WeatherBlox Daily Observations layout. Learn more.

39.92423, -83.80882

Hourly Observations for April 4, 2017

Temp ( °F °C ) Dew Point ( °F °C ) Humidity (%) Winds ( mph kmh ) Pressure ( in mb ) Visibility ( mi km ) Precip ( " mm )
12:56 am 00:56 Cloudy 58 14.4 55 12.8 90 90 S 10 17 29.43 997 10 16.0934 0 0
1:56 am 01:56 Mostly Cloudy 57 13.9 55 12.8 93 93 SSW 13 20 29.44 997 10 16.0934 0 0
2:07 am 02:07 Cloudy 57 14 55 13 94 94 SW 12 19 29.44 997 10 16.0934 0 0
2:34 am 02:34 Mostly Cloudy 57 14 54 12 88 88 SW 13 20 29.44 997 10 16.0934 0 0
2:56 am 02:56 Cloudy 56 13.3 54 12.2 93 93 SW 14 22 29.44 997 10 16.0934 0 0
3:12 am 03:12 Cloudy 55 13 54 12 94 94 SW 15 24 29.44 997 10 16.0934 0 0
3:40 am 03:40 Cloudy 57 14 54 12 88 88 WSW 15 24 29.44 997 10 16.0934 0 0
3:56 am 03:56 Cloudy 57 13.9 54 12.2 90 90 SW 16 26 29.44 997 10 16.0934 0 0
4:56 am 04:56 Cloudy 57 13.9 54 12.2 90 90 WSW 18 30 29.45 997 10 16.0934 0 0.0254
5:56 am 05:56 Cloudy 56 13.3 54 12.2 93 93 WSW 16 26 29.48 998 10 16.0934 0 0
6:43 am 06:43 Cloudy 55 13 54 12 94 94 WSW 21 33 29.5 999 10 16.0934 0 0
6:56 am 06:56 Cloudy 57 13.9 52 11.1 83 83 WSW 17 28 29.51 999 10 16.0934 0 0
7:56 am 07:56 Cloudy 55 12.8 51 10.6 87 87 WSW 21 33 29.55 1001 10 16.0934 0 0
8:56 am 08:56 Cloudy 55 12.8 50 10 83 83 WSW 22 35 29.59 1002 10 16.0934 0 0
9:56 am 09:56 Cloudy 55 12.8 50 10 83 83 WSW 20 31 29.61 1003 10 16.0934 0 0
10:56 am 10:56 Cloudy 56 13.3 49 9.4 77 77 W 26 43 29.65 1004 10 16.0934 0 0
11:09 am 11:09 Cloudy 55 13 48 9 77 77 W 23 37 29.65 1004 10 16.0934 0 0
11:25 am 11:25 Cloudy 55 13 48 9 77 77 W 18 30 29.68 1005 10 16.0934 0 0
11:38 am 11:38 Cloudy 57 14 50 10 77 77 W 24 39 29.68 1005 10 16.0934 0 0
11:56 am 11:56 Cloudy 56 13.3 49 9.4 77 77 WSW 21 33 29.68 1005 10 16.0934 0 0
12:14 pm 12:14 Cloudy 55 13 48 9 77 77 W 22 35 29.68 1005 10 16.0934 0 0
12:56 pm 12:56 Cloudy 56 13.3 48 8.9 75 75 WSW 18 30 29.71 1006 10 16.0934 0 0
1:21 pm 13:21 Cloudy 57 14 48 9 72 72 W 23 37 29.71 1006 10 16.0934 0 0
1:37 pm 13:37 Cloudy 57 14 48 9 72 72 W 21 33 29.71 1006 10 16.0934 0 0
1:56 pm 13:56 Cloudy 56 13.3 49 9.4 77 77 W 17 28 29.73 1007 10 16.0934 0 0
2:30 pm 14:30 Cloudy 57 14 48 9 72 72 W 24 39 29.74 1007 10 16.0934 0 0.0254
2:56 pm 14:56 Cloudy 59 15 49 9.4 69 69 WSW 24 39 29.73 1007 10 16.0934 0 0.0254
3:56 pm 15:56 Cloudy 59 15 49 9.4 69 69 W 21 33 29.74 1007 10 16.0934 0 0
4:56 pm 16:56 Cloudy 60 15.6 48 8.9 65 65 W 15 24 29.76 1008 10 16.0934 0 0
5:56 pm 17:56 Cloudy 60 15.6 48 8.9 65 65 W 18 30 29.79 1009 10 16.0934 0 0
6:26 pm 18:26 Cloudy 57 14 48 9 72 72 NW 13 20 29.8 1009 10 16.0934 0 0
6:56 pm 18:56 Cloudy 57 13.9 48 8.9 72 72 NW 14 22 29.84 1010 10 16.0934 0 0
7:11 pm 19:11 Cloudy 55 13 48 9 77 77 NW 12 19 29.83 1010 10 16.0934 0 0
7:37 pm 19:37 Cloudy 54 12 46 8 77 77 WNW 13 20 29.85 1011 10 16.0934 0 0
7:56 pm 19:56 Cloudy 53 11.7 47 8.3 80 80 WNW 13 20 29.87 1011 10 16.0934 0 0
8:38 pm 20:38 Cloudy 54 12 46 8 77 77 NW 12 19 29.88 1012 10 16.0934 0 0
8:56 pm 20:56 Mostly Cloudy 52 11.1 47 8.3 83 83 WNW 12 19 29.91 1013 10 16.0934 0 0
9:12 pm 21:12 Partly Cloudy 52 11 46 8 82 82 WNW 10 17 29.91 1013 10 16.0934 0 0
9:56 pm 21:56 Mostly Cloudy 51 10.6 46 7.8 83 83 NW 10 17 29.93 1014 10 16.0934 0 0
10:56 pm 22:56 Mostly Clear 48 8.9 44 6.7 86 86 NNW 14 22 29.93 1013 10 16.0934 0 0
11:56 pm 23:56 Clear 46 7.8 43 6.1 89 89 N 9 15 29.93 1014 10 16.0934 0 0

Powered by AerisWeather